Year,Month,Day,Hour,Minute,Value (Times are PST for temperature in C)
2007,08,01,00,00,14.10
2007,08,01,00,01,14.10
2007,08,01,00,02,14.10
2007,08,01,00,03,14.10
2007,08,01,00,04,14.10
2007,08,01,00,05,14.10
2007,08,01,00,06,14.10
2007,08,01,00,07,14.00
2007,08,01,00,08,14.10
2007,08,01,00,09,14.10
2007,08,01,00,10,14.10
2007,08,01,00,11,14.10
2007,08,01,00,12,14.10
2007,08,01,00,13,14.20
2007,08,01,00,14,14.20
2007,08,01,00,15,14.20
2007,08,01,00,16,14.30
2007,08,01,00,17,14.40
2007,08,01,00,18,14.50
2007,08,01,00,19,14.50
2007,08,01,00,20,14.60
2007,08,01,00,21,14.60
2007,08,01,00,22,14.50
2007,08,01,00,23,14.50
2007,08,01,00,24,14.50
2007,08,01,00,25,14.50
2007,08,01,00,26,14.40
2007,08,01,00,27,14.40
2007,08,01,00,28,14.40
2007,08,01,00,29,14.40
2007,08,01,00,30,14.40
2007,08,01,00,31,14.40
2007,08,01,00,32,14.40
2007,08,01,00,33,14.40
2007,08,01,00,34,14.40
2007,08,01,00,35,14.40
2007,08,01,00,36,14.30
2007,08,01,00,37,14.30
2007,08,01,00,38,14.30
2007,08,01,00,39,14.30
2007,08,01,00,40,14.30
2007,08,01,00,41,14.20
2007,08,01,00,42,14.20
2007,08,01,00,43,14.20
2007,08,01,00,44,14.20
2007,08,01,00,45,14.20
2007,08,01,00,46,14.20
2007,08,01,00,47,14.20
2007,08,01,00,48,14.20
2007,08,01,00,49,14.20
2007,08,01,00,50,14.20
2007,08,01,00,51,14.20
2007,08,01,00,52,14.20
2007,08,01,00,53,14.20
2007,08,01,00,54,14.30
2007,08,01,00,55,14.30
2007,08,01,00,56,14.30
2007,08,01,00,57,14.30
2007,08,01,00,58,14.30
2007,08,01,00,59,14.30
2007,08,01,01,00,14.30
2007,08,01,01,01,14.30
2007,08,01,01,02,14.30
2007,08,01,01,03,14.30
2007,08,01,01,04,14.30
2007,08,01,01,05,14.30
2007,08,01,01,06,14.30
2007,08,01,01,07,14.30
2007,08,01,01,08,14.30
2007,08,01,01,09,14.30
2007,08,01,01,10,14.20
2007,08,01,01,11,14.20
2007,08,01,01,12,14.10
2007,08,01,01,13,14.10
2007,08,01,01,14,14.10
2007,08,01,01,15,14.00
2007,08,01,01,16,14.00
2007,08,01,01,17,13.90
2007,08,01,01,18,13.90
2007,08,01,01,19,13.90
2007,08,01,01,20,13.90
2007,08,01,01,21,13.90
2007,08,01,01,22,13.90
2007,08,01,01,23,13.90
2007,08,01,01,24,14.00
2007,08,01,01,25,14.00
2007,08,01,01,26,14.10
2007,08,01,01,27,14.10
2007,08,01,01,28,14.10
2007,08,01,01,29,14.20
2007,08,01,01,30,14.20
2007,08,01,01,31,14.20
2007,08,01,01,32,14.20
2007,08,01,01,33,14.20
2007,08,01,01,34,14.20
2007,08,01,01,35,14.20
2007,08,01,01,36,14.20
2007,08,01,01,37,14.20
2007,08,01,01,38,14.20
2007,08,01,01,39,14.30
2007,08,01,01,40,14.30
2007,08,01,01,41,14.30
2007,08,01,01,42,14.30
2007,08,01,01,43,14.40
2007,08,01,01,44,14.40
2007,08,01,01,45,14.40
2007,08,01,01,46,14.40
2007,08,01,01,47,14.40
2007,08,01,01,48,14.40
2007,08,01,01,49,14.40
2007,08,01,01,50,14.40
2007,08,01,01,51,14.30
2007,08,01,01,52,14.30
2007,08,01,01,53,14.30
2007,08,01,01,54,14.30
2007,08,01,01,55,14.30
2007,08,01,01,56,14.30
2007,08,01,01,57,14.30
2007,08,01,01,58,14.30
2007,08,01,01,59,14.20
2007,08,01,02,00,14.20
2007,08,01,02,01,14.20
2007,08,01,02,02,14.20
2007,08,01,02,03,14.10
2007,08,01,02,04,14.10
2007,08,01,02,05,14.10
2007,08,01,02,06,14.10
2007,08,01,02,07,14.00
2007,08,01,02,08,14.00
2007,08,01,02,09,14.00
2007,08,01,02,10,14.00
2007,08,01,02,11,14.00
2007,08,01,02,12,13.90
2007,08,01,02,13,13.90
2007,08,01,02,14,13.90
2007,08,01,02,15,13.90
2007,08,01,02,16,13.90
2007,08,01,02,17,13.80
2007,08,01,02,18,13.80
2007,08,01,02,19,13.80
2007,08,01,02,20,13.80
2007,08,01,02,21,13.80
2007,08,01,02,22,13.80
2007,08,01,02,23,13.70
2007,08,01,02,24,13.70
2007,08,01,02,25,13.70
2007,08,01,02,26,13.70
2007,08,01,02,27,13.70
2007,08,01,02,28,13.60
2007,08,01,02,29,13.60
2007,08,01,02,30,13.60
2007,08,01,02,31,13.60
2007,08,01,02,32,13.60
2007,08,01,02,33,13.60
2007,08,01,02,34,13.60
2007,08,01,02,35,13.60
2007,08,01,02,36,13.50
2007,08,01,02,37,13.50
2007,08,01,02,38,13.50
2007,08,01,02,39,13.50
2007,08,01,02,40,13.50
2007,08,01,02,41,13.40
2007,08,01,02,42,13.40
2007,08,01,02,43,13.40
2007,08,01,02,44,13.30
2007,08,01,02,45,13.30
2007,08,01,02,46,13.40
2007,08,01,02,47,13.40
2007,08,01,02,48,13.40
2007,08,01,02,49,13.40
2007,08,01,02,50,13.40
2007,08,01,02,51,13.40
2007,08,01,02,52,13.40
2007,08,01,02,53,13.40
2007,08,01,02,54,13.40
2007,08,01,02,55,13.50
2007,08,01,02,56,13.50
2007,08,01,02,57,13.50
2007,08,01,02,58,13.50
2007,08,01,02,59,13.50
2007,08,01,03,00,13.50
2007,08,01,03,01,13.40
2007,08,01,03,02,13.40
2007,08,01,03,03,13.40
2007,08,01,03,04,13.30
2007,08,01,03,05,13.30
2007,08,01,03,06,13.20
2007,08,01,03,07,13.20
2007,08,01,03,08,13.20
2007,08,01,03,09,13.20
2007,08,01,03,10,13.20
2007,08,01,03,11,13.20
2007,08,01,03,12,13.20
2007,08,01,03,13,13.20
2007,08,01,03,14,13.30
2007,08,01,03,15,13.30
2007,08,01,03,16,13.30
2007,08,01,03,17,13.30
2007,08,01,03,18,13.30
2007,08,01,03,19,13.30
2007,08,01,03,20,13.30
2007,08,01,03,21,13.30
2007,08,01,03,22,13.30
2007,08,01,03,23,13.30
2007,08,01,03,24,13.30
2007,08,01,03,25,13.30
2007,08,01,03,26,13.30
2007,08,01,03,27,13.30
2007,08,01,03,28,13.30
2007,08,01,03,29,13.30
2007,08,01,03,30,13.30
2007,08,01,03,31,13.30
2007,08,01,03,32,13.30
2007,08,01,03,33,13.30
2007,08,01,03,34,13.30
2007,08,01,03,35,13.20
2007,08,01,03,36,13.10
2007,08,01,03,37,13.10
2007,08,01,03,38,13.00
2007,08,01,03,39,12.90
2007,08,01,03,40,12.90
2007,08,01,03,41,12.80
2007,08,01,03,42,12.80
2007,08,01,03,43,12.70
2007,08,01,03,44,12.70
2007,08,01,03,45,12.60
2007,08,01,03,46,12.60
2007,08,01,03,47,12.50
2007,08,01,03,48,12.50
2007,08,01,03,49,12.40
2007,08,01,03,50,12.40
2007,08,01,03,51,12.40
2007,08,01,03,52,12.40
2007,08,01,03,53,12.40
2007,08,01,03,54,12.50
2007,08,01,03,55,12.50
2007,08,01,03,56,12.50
2007,08,01,03,57,12.60
2007,08,01,03,58,12.60
2007,08,01,03,59,12.60
2007,08,01,04,00,12.70
2007,08,01,04,01,12.80
2007,08,01,04,02,12.80
2007,08,01,04,03,12.90
2007,08,01,04,04,12.90
2007,08,01,04,05,12.90
2007,08,01,04,06,12.90
2007,08,01,04,07,13.00
2007,08,01,04,08,13.00
2007,08,01,04,09,13.00
2007,08,01,04,10,13.00
2007,08,01,04,11,13.00
2007,08,01,04,12,13.00
2007,08,01,04,13,13.00
2007,08,01,04,14,13.00
2007,08,01,04,15,13.00
2007,08,01,04,16,13.00
2007,08,01,04,17,13.10
2007,08,01,04,18,13.10
2007,08,01,04,19,13.10
2007,08,01,04,20,13.20
2007,08,01,04,21,13.20
2007,08,01,04,22,13.20
2007,08,01,04,23,13.20
2007,08,01,04,24,13.20
2007,08,01,04,25,13.20
2007,08,01,04,26,13.20
2007,08,01,04,27,13.20
2007,08,01,04,28,13.20
2007,08,01,04,29,13.20
2007,08,01,04,30,13.20
2007,08,01,04,31,13.20
2007,08,01,04,32,13.20
2007,08,01,04,33,13.30
2007,08,01,04,34,13.30
2007,08,01,04,35,13.30
2007,08,01,04,36,13.30
2007,08,01,04,37,13.30
2007,08,01,04,38,13.30
2007,08,01,04,39,13.30
2007,08,01,04,40,13.20
2007,08,01,04,41,13.30
2007,08,01,04,42,13.30
2007,08,01,04,43,13.30
2007,08,01,04,44,13.30
2007,08,01,04,45,13.30
2007,08,01,04,46,13.30
2007,08,01,04,47,13.30
2007,08,01,04,48,13.30
2007,08,01,04,49,13.30
2007,08,01,04,50,13.30
2007,08,01,04,51,13.30
2007,08,01,04,52,13.30
2007,08,01,04,53,13.40
2007,08,01,04,54,13.40
2007,08,01,04,55,13.40
2007,08,01,04,56,13.40
2007,08,01,04,57,13.40
2007,08,01,04,58,13.40
2007,08,01,04,59,13.40
2007,08,01,05,00,13.40
2007,08,01,05,01,13.40
2007,08,01,05,02,13.40
2007,08,01,05,03,13.40
2007,08,01,05,04,13.40
2007,08,01,05,05,13.40
2007,08,01,05,06,13.40
2007,08,01,05,07,13.40
2007,08,01,05,08,13.30
2007,08,01,05,09,13.30
2007,08,01,05,10,13.30
2007,08,01,05,11,13.20
2007,08,01,05,12,13.20
2007,08,01,05,13,13.10
2007,08,01,05,14,13.10
2007,08,01,05,15,13.00
2007,08,01,05,16,12.90
2007,08,01,05,17,12.90
2007,08,01,05,18,12.80
2007,08,01,05,19,12.80
2007,08,01,05,20,12.80
2007,08,01,05,21,12.80
2007,08,01,05,22,12.90
2007,08,01,05,23,12.90
2007,08,01,05,24,13.00
2007,08,01,05,25,13.00
2007,08,01,05,26,13.00
2007,08,01,05,27,13.00
2007,08,01,05,28,13.10
2007,08,01,05,29,13.10
2007,08,01,05,30,13.20
2007,08,01,05,31,13.20
2007,08,01,05,32,13.20
2007,08,01,05,33,13.20
2007,08,01,05,34,13.20
2007,08,01,05,35,13.10
2007,08,01,05,36,13.00
2007,08,01,05,37,12.90
2007,08,01,05,38,12.80
2007,08,01,05,39,12.80
2007,08,01,05,40,12.70
2007,08,01,05,41,12.60
2007,08,01,05,42,12.50
2007,08,01,05,43,12.50
2007,08,01,05,44,12.40
2007,08,01,05,45,12.40
2007,08,01,05,46,12.40
2007,08,01,05,47,12.50
2007,08,01,05,48,12.50
2007,08,01,05,49,12.50
2007,08,01,05,50,12.60
2007,08,01,05,51,12.60
2007,08,01,05,52,12.70
2007,08,01,05,53,12.80
2007,08,01,05,54,12.80
2007,08,01,05,55,12.90
2007,08,01,05,56,13.00
2007,08,01,05,57,13.00
2007,08,01,05,58,13.10
2007,08,01,05,59,13.20
2007,08,01,06,00,13.30
2007,08,01,06,01,13.40
2007,08,01,06,02,13.40
2007,08,01,06,03,13.50
2007,08,01,06,04,13.50
2007,08,01,06,05,13.60
2007,08,01,06,06,13.60
2007,08,01,06,07,13.70
2007,08,01,06,08,13.70
2007,08,01,06,09,13.80
2007,08,01,06,10,13.80
2007,08,01,06,11,13.80
2007,08,01,06,12,13.80
2007,08,01,06,13,13.60
2007,08,01,06,14,13.50
2007,08,01,06,15,13.30
2007,08,01,06,16,13.20
2007,08,01,06,17,13.10
2007,08,01,06,18,13.00
2007,08,01,06,19,12.90
2007,08,01,06,20,12.80
2007,08,01,06,21,12.80
2007,08,01,06,22,12.80
2007,08,01,06,23,12.80
2007,08,01,06,24,12.80
2007,08,01,06,25,12.90
2007,08,01,06,26,13.00
2007,08,01,06,27,13.00
2007,08,01,06,28,13.10
2007,08,01,06,29,13.10
2007,08,01,06,30,13.20
2007,08,01,06,31,13.20
2007,08,01,06,32,13.30
2007,08,01,06,33,13.30
2007,08,01,06,34,13.30
2007,08,01,06,35,13.40
2007,08,01,06,36,13.50
2007,08,01,06,37,13.50
2007,08,01,06,38,13.60
2007,08,01,06,39,13.60
2007,08,01,06,40,13.70
2007,08,01,06,41,13.70
2007,08,01,06,42,13.70
2007,08,01,06,43,13.80
2007,08,01,06,44,13.90
2007,08,01,06,45,13.90
2007,08,01,06,46,14.00
2007,08,01,06,47,14.10
2007,08,01,06,48,14.20
2007,08,01,06,49,14.20
2007,08,01,06,50,14.30
2007,08,01,06,51,14.30
2007,08,01,06,52,14.40
2007,08,01,06,53,14.40
2007,08,01,06,54,14.40
2007,08,01,06,55,14.40
2007,08,01,06,56,14.30
2007,08,01,06,57,14.40
2007,08,01,06,58,14.40
2007,08,01,06,59,14.40
2007,08,01,07,00,14.40
2007,08,01,07,01,14.40
2007,08,01,07,02,14.50
2007,08,01,07,03,14.50
2007,08,01,07,04,14.60
2007,08,01,07,05,14.60
2007,08,01,07,06,14.70
2007,08,01,07,07,14.70
2007,08,01,07,08,14.70
2007,08,01,07,09,14.70
2007,08,01,07,10,14.70
2007,08,01,07,11,14.70
2007,08,01,07,12,14.70
2007,08,01,07,13,14.70
2007,08,01,07,14,14.70
2007,08,01,07,15,14.70
2007,08,01,07,16,14.60
2007,08,01,07,17,14.60
2007,08,01,07,18,14.60
2007,08,01,07,19,14.60
2007,08,01,07,20,14.60
2007,08,01,07,21,14.60
2007,08,01,07,22,14.50
2007,08,01,07,23,14.50
2007,08,01,07,24,14.50
2007,08,01,07,25,14.60
2007,08,01,07,26,14.60
2007,08,01,07,27,14.70
2007,08,01,07,28,14.70
2007,08,01,07,29,14.70
2007,08,01,07,30,14.70
2007,08,01,07,31,14.80
2007,08,01,07,32,14.80
2007,08,01,07,33,14.80
2007,08,01,07,34,14.80
2007,08,01,07,35,14.90
2007,08,01,07,36,15.00
2007,08,01,07,37,15.00
2007,08,01,07,38,15.00
2007,08,01,07,39,15.00
2007,08,01,07,40,15.00
2007,08,01,07,41,15.00
2007,08,01,07,42,15.10
2007,08,01,07,43,15.20
2007,08,01,07,44,15.20
2007,08,01,07,45,15.30
2007,08,01,07,46,15.40
2007,08,01,07,47,15.50
2007,08,01,07,48,15.60
2007,08,01,07,49,15.60
2007,08,01,07,50,15.70
2007,08,01,07,51,15.80
2007,08,01,07,52,15.80
2007,08,01,07,53,15.80
2007,08,01,07,54,15.80
2007,08,01,07,55,15.90
2007,08,01,07,56,15.90
2007,08,01,07,57,15.90
2007,08,01,07,58,15.90
2007,08,01,07,59,16.00
2007,08,01,08,00,16.00
2007,08,01,08,01,16.10
2007,08,01,08,02,16.10
2007,08,01,08,03,16.20
2007,08,01,08,04,16.30
2007,08,01,08,05,16.30
2007,08,01,08,06,16.40
2007,08,01,08,07,16.40
2007,08,01,08,08,16.50
2007,08,01,08,09,16.50
2007,08,01,08,10,16.60
2007,08,01,08,11,16.70
2007,08,01,08,12,16.80
2007,08,01,08,13,16.90
2007,08,01,08,14,17.00
2007,08,01,08,15,17.10
2007,08,01,08,16,17.20
2007,08,01,08,17,17.40
2007,08,01,08,18,17.50
2007,08,01,08,19,17.60
2007,08,01,08,20,17.70
2007,08,01,08,21,17.70
2007,08,01,08,22,17.80
2007,08,01,08,23,17.80
2007,08,01,08,24,17.90
2007,08,01,08,25,17.90
2007,08,01,08,26,18.00
2007,08,01,08,27,18.00
2007,08,01,08,28,18.00
2007,08,01,08,29,18.10
2007,08,01,08,30,18.10
2007,08,01,08,31,18.20
2007,08,01,08,32,18.20
2007,08,01,08,33,18.30
2007,08,01,08,34,18.30
2007,08,01,08,35,18.30
2007,08,01,08,36,18.30
2007,08,01,08,37,18.40
2007,08,01,08,38,18.40
2007,08,01,08,39,18.50
2007,08,01,08,40,18.50
2007,08,01,08,41,18.60
2007,08,01,08,42,18.60
2007,08,01,08,43,18.70
2007,08,01,08,44,18.80
2007,08,01,08,45,18.80
2007,08,01,08,46,18.90
2007,08,01,08,47,19.00
2007,08,01,08,48,19.00
2007,08,01,08,49,19.00
2007,08,01,08,50,19.00
2007,08,01,08,51,19.10
2007,08,01,08,52,19.20
2007,08,01,08,53,19.20
2007,08,01,08,54,19.20
2007,08,01,08,55,19.30
2007,08,01,08,56,19.30
2007,08,01,08,57,19.30
2007,08,01,08,58,19.30
2007,08,01,08,59,19.30
2007,08,01,09,00,19.30
2007,08,01,09,01,19.40
2007,08,01,09,02,19.50
2007,08,01,09,03,19.60
2007,08,01,09,04,19.70
2007,08,01,09,05,19.80
2007,08,01,09,06,19.90
2007,08,01,09,07,20.00
2007,08,01,09,08,20.10
2007,08,01,09,09,20.20
2007,08,01,09,10,20.30
2007,08,01,09,11,20.40
2007,08,01,09,12,20.40
2007,08,01,09,13,20.50
2007,08,01,09,14,20.50
2007,08,01,09,15,20.60
2007,08,01,09,16,20.60
2007,08,01,09,17,20.70
2007,08,01,09,18,20.80
2007,08,01,09,19,20.80
2007,08,01,09,20,20.90
2007,08,01,09,21,20.90
2007,08,01,09,22,21.00
2007,08,01,09,23,21.10
2007,08,01,09,24,21.20
2007,08,01,09,25,21.20
2007,08,01,09,26,21.30
2007,08,01,09,27,21.30
2007,08,01,09,28,21.40
2007,08,01,09,29,21.50
2007,08,01,09,30,21.50
2007,08,01,09,31,21.50
2007,08,01,09,32,21.40
2007,08,01,09,33,21.40
2007,08,01,09,34,21.40
2007,08,01,09,35,21.30
2007,08,01,09,36,21.30
2007,08,01,09,37,21.20
2007,08,01,09,38,21.10
2007,08,01,09,39,20.90
2007,08,01,09,40,20.90
2007,08,01,09,41,20.80
2007,08,01,09,42,20.80
2007,08,01,09,43,20.90
2007,08,01,09,44,21.00
2007,08,01,09,45,21.00
2007,08,01,09,46,21.10
2007,08,01,09,47,21.20
2007,08,01,09,48,21.30
2007,08,01,09,49,21.40
2007,08,01,09,50,21.50
2007,08,01,09,51,21.50
2007,08,01,09,52,21.40
2007,08,01,09,53,21.50
2007,08,01,09,54,21.60
2007,08,01,09,55,21.60
2007,08,01,09,56,21.60
2007,08,01,09,57,21.60
2007,08,01,09,58,21.50
2007,08,01,09,59,21.50
2007,08,01,10,00,21.40
2007,08,01,10,01,21.40
2007,08,01,10,02,21.50
2007,08,01,10,03,21.50
2007,08,01,10,04,21.50
2007,08,01,10,05,21.60
2007,08,01,10,06,21.60
2007,08,01,10,07,21.70
2007,08,01,10,08,21.70
2007,08,01,10,09,21.80
2007,08,01,10,10,21.80
2007,08,01,10,11,21.80
2007,08,01,10,12,21.90
2007,08,01,10,13,21.90
2007,08,01,10,14,21.90
2007,08,01,10,15,21.80
2007,08,01,10,16,21.80
2007,08,01,10,17,21.70
2007,08,01,10,18,21.60
2007,08,01,10,19,21.60
2007,08,01,10,20,21.60
2007,08,01,10,21,21.60
2007,08,01,10,22,21.60
2007,08,01,10,23,21.50
2007,08,01,10,24,21.50
2007,08,01,10,25,21.40
2007,08,01,10,26,21.40
2007,08,01,10,27,21.50
2007,08,01,10,28,21.40
2007,08,01,10,29,21.40
2007,08,01,10,30,21.40
2007,08,01,10,31,21.40
2007,08,01,10,32,21.30
2007,08,01,10,33,21.30
2007,08,01,10,34,21.30
2007,08,01,10,35,21.20
2007,08,01,10,36,21.20
2007,08,01,10,37,21.30
2007,08,01,10,38,21.30
2007,08,01,10,39,21.20
2007,08,01,10,40,21.20
2007,08,01,10,41,21.20
2007,08,01,10,42,21.10
2007,08,01,10,43,21.10
2007,08,01,10,44,21.10
2007,08,01,10,45,21.10
2007,08,01,10,46,21.10
2007,08,01,10,47,21.00
2007,08,01,10,48,21.00
2007,08,01,10,49,20.90
2007,08,01,10,50,20.80
2007,08,01,10,51,20.70
2007,08,01,10,52,20.60
2007,08,01,10,53,20.50
2007,08,01,10,54,20.50
2007,08,01,10,55,20.30
2007,08,01,10,56,20.30
2007,08,01,10,57,20.30
2007,08,01,10,58,20.30
2007,08,01,10,59,20.40
2007,08,01,11,00,20.50
2007,08,01,11,01,20.50
2007,08,01,11,02,20.60
2007,08,01,11,03,20.70
2007,08,01,11,04,20.90
2007,08,01,11,05,21.00
2007,08,01,11,06,21.00
2007,08,01,11,07,21.20
2007,08,01,11,08,21.30
2007,08,01,11,09,21.30
2007,08,01,11,10,21.30
2007,08,01,11,11,21.30
2007,08,01,11,12,21.10
2007,08,01,11,13,20.90
2007,08,01,11,14,20.80
2007,08,01,11,15,20.70
2007,08,01,11,16,20.60
2007,08,01,11,17,20.70
2007,08,01,11,18,20.70
2007,08,01,11,19,20.60
2007,08,01,11,20,20.70
2007,08,01,11,21,20.80
2007,08,01,11,22,20.80
2007,08,01,11,23,20.90
2007,08,01,11,24,21.00
2007,08,01,11,25,21.10
2007,08,01,11,26,21.10
2007,08,01,11,27,21.10
2007,08,01,11,28,21.10
2007,08,01,11,29,21.10
2007,08,01,11,30,21.20
2007,08,01,11,31,21.30
2007,08,01,11,32,21.50
2007,08,01,11,33,21.70
2007,08,01,11,34,21.80
2007,08,01,11,35,21.80
2007,08,01,11,36,21.70
2007,08,01,11,37,21.60
2007,08,01,11,38,21.60
2007,08,01,11,39,21.60
2007,08,01,11,40,21.60
2007,08,01,11,41,21.70
2007,08,01,11,42,21.60
2007,08,01,11,43,21.40
2007,08,01,11,44,21.20
2007,08,01,11,45,21.00
2007,08,01,11,46,20.90
2007,08,01,11,47,20.90
2007,08,01,11,48,21.00
2007,08,01,11,49,21.10
2007,08,01,11,50,21.20
2007,08,01,11,51,21.30
2007,08,01,11,52,21.30
2007,08,01,11,53,21.40
2007,08,01,11,54,21.50
2007,08,01,11,55,21.60
2007,08,01,11,56,21.60
2007,08,01,11,57,21.60
2007,08,01,11,58,21.50
2007,08,01,11,59,21.40
2007,08,01,12,00,21.30
2007,08,01,12,01,21.20
2007,08,01,12,02,21.10
2007,08,01,12,03,21.10
2007,08,01,12,04,21.10
2007,08,01,12,05,21.10
2007,08,01,12,06,21.10
2007,08,01,12,07,21.00
2007,08,01,12,08,20.90
2007,08,01,12,09,20.90
2007,08,01,12,10,21.00
2007,08,01,12,11,21.00
2007,08,01,12,12,21.10
2007,08,01,12,13,21.20
2007,08,01,12,14,21.20
2007,08,01,12,15,21.20
2007,08,01,12,16,21.10
2007,08,01,12,17,21.00
2007,08,01,12,18,21.00
2007,08,01,12,19,20.90
2007,08,01,12,20,21.00
2007,08,01,12,21,21.00
2007,08,01,12,22,21.00
2007,08,01,12,23,21.00
2007,08,01,12,24,20.90
2007,08,01,12,25,21.00
2007,08,01,12,26,21.00
2007,08,01,12,27,21.10
2007,08,01,12,28,21.20
2007,08,01,12,29,21.30
2007,08,01,12,30,21.30
2007,08,01,12,31,21.30
2007,08,01,12,32,21.20
2007,08,01,12,33,21.20
2007,08,01,12,34,21.20
2007,08,01,12,35,21.20
2007,08,01,12,36,21.10
2007,08,01,12,37,21.20
2007,08,01,12,38,21.20
2007,08,01,12,39,21.20
2007,08,01,12,40,21.10
2007,08,01,12,41,21.10
2007,08,01,12,42,21.20
2007,08,01,12,43,21.30
2007,08,01,12,44,21.40
2007,08,01,12,45,21.30
2007,08,01,12,46,21.30
2007,08,01,12,47,21.30
2007,08,01,12,48,21.30
2007,08,01,12,49,21.40
2007,08,01,12,50,21.60
2007,08,01,12,51,21.70
2007,08,01,12,52,21.90
2007,08,01,12,53,22.20
2007,08,01,12,54,22.30
2007,08,01,12,55,22.30
2007,08,01,12,56,22.30
2007,08,01,12,57,22.10
2007,08,01,12,58,21.90
2007,08,01,12,59,21.80
2007,08,01,13,00,21.70
2007,08,01,13,01,21.70
2007,08,01,13,02,21.60
2007,08,01,13,03,21.50
2007,08,01,13,04,21.50
2007,08,01,13,05,21.50
2007,08,01,13,06,21.50
2007,08,01,13,07,21.60
2007,08,01,13,08,21.70
2007,08,01,13,09,21.80
2007,08,01,13,10,22.00
2007,08,01,13,11,22.10
2007,08,01,13,12,22.10
2007,08,01,13,13,22.20
2007,08,01,13,14,22.30
2007,08,01,13,15,22.30
2007,08,01,13,16,22.30
2007,08,01,13,17,22.20
2007,08,01,13,18,22.20
2007,08,01,13,19,22.20
2007,08,01,13,20,22.10
2007,08,01,13,21,22.00
2007,08,01,13,22,22.00
2007,08,01,13,23,22.00
2007,08,01,13,24,22.10
2007,08,01,13,25,22.20
2007,08,01,13,26,22.40
2007,08,01,13,27,22.50
2007,08,01,13,28,22.50
2007,08,01,13,29,22.50
2007,08,01,13,30,22.40
2007,08,01,13,31,22.40
2007,08,01,13,32,22.50
2007,08,01,13,33,22.60
2007,08,01,13,34,22.80
2007,08,01,13,35,22.90
2007,08,01,13,36,22.80
2007,08,01,13,37,22.80
2007,08,01,13,38,22.80
2007,08,01,13,39,22.80
2007,08,01,13,40,22.80
2007,08,01,13,41,22.80
2007,08,01,13,42,22.90
2007,08,01,13,43,23.00
2007,08,01,13,44,23.10
2007,08,01,13,45,23.10
2007,08,01,13,46,23.00
2007,08,01,13,47,22.80
2007,08,01,13,48,22.80
2007,08,01,13,49,22.90
2007,08,01,13,50,22.90
2007,08,01,13,51,22.90
2007,08,01,13,52,22.70
2007,08,01,13,53,22.70
2007,08,01,13,54,22.70
2007,08,01,13,55,22.70
2007,08,01,13,56,22.70
2007,08,01,13,57,22.70
2007,08,01,13,58,22.70
2007,08,01,13,59,22.60
2007,08,01,14,00,22.40
2007,08,01,14,01,22.30
2007,08,01,14,02,22.30
2007,08,01,14,03,22.30
2007,08,01,14,04,22.40
2007,08,01,14,05,22.30
2007,08,01,14,06,22.30
2007,08,01,14,07,22.30
2007,08,01,14,08,22.30
2007,08,01,14,09,22.40
2007,08,01,14,10,22.50
2007,08,01,14,11,22.60
2007,08,01,14,12,22.90
2007,08,01,14,13,23.10
2007,08,01,14,14,23.30
2007,08,01,14,15,23.50
2007,08,01,14,16,23.70
2007,08,01,14,17,23.80
2007,08,01,14,18,24.00
2007,08,01,14,19,24.10
2007,08,01,14,20,24.10
2007,08,01,14,21,24.00
2007,08,01,14,22,23.80
2007,08,01,14,23,23.70
2007,08,01,14,24,23.70
2007,08,01,14,25,23.80
2007,08,01,14,26,23.90
2007,08,01,14,27,24.00
2007,08,01,14,28,23.90
2007,08,01,14,29,23.80
2007,08,01,14,30,23.90
2007,08,01,14,31,24.00
2007,08,01,14,32,24.10
2007,08,01,14,33,24.20
2007,08,01,14,34,24.20
2007,08,01,14,35,24.20
2007,08,01,14,36,24.10
2007,08,01,14,37,24.00
2007,08,01,14,38,24.10
2007,08,01,14,39,24.10
2007,08,01,14,40,24.20
2007,08,01,14,41,24.30
2007,08,01,14,42,24.50
2007,08,01,14,43,24.60
2007,08,01,14,44,24.70
2007,08,01,14,45,24.80
2007,08,01,14,46,24.80
2007,08,01,14,47,24.80
2007,08,01,14,48,24.70
2007,08,01,14,49,24.50
2007,08,01,14,50,24.30
2007,08,01,14,51,24.10
2007,08,01,14,52,24.00
2007,08,01,14,53,24.00
2007,08,01,14,54,23.90
2007,08,01,14,55,23.90
2007,08,01,14,56,24.00
2007,08,01,14,57,24.10
2007,08,01,14,58,24.20
2007,08,01,14,59,24.10
2007,08,01,15,00,24.00
2007,08,01,15,01,24.10
2007,08,01,15,02,24.10
2007,08,01,15,03,24.20
2007,08,01,15,04,24.10
2007,08,01,15,05,24.10
2007,08,01,15,06,24.00
2007,08,01,15,07,23.90
2007,08,01,15,08,23.90
2007,08,01,15,09,23.80
2007,08,01,15,10,23.70
2007,08,01,15,11,23.80
2007,08,01,15,12,23.80
2007,08,01,15,13,23.80
2007,08,01,15,14,23.70
2007,08,01,15,15,23.60
2007,08,01,15,16,23.60
2007,08,01,15,17,23.60
2007,08,01,15,18,23.60
2007,08,01,15,19,23.70
2007,08,01,15,20,23.80
2007,08,01,15,21,23.80
2007,08,01,15,22,23.80
2007,08,01,15,23,23.70
2007,08,01,15,24,23.60
2007,08,01,15,25,23.70
2007,08,01,15,26,23.70
2007,08,01,15,27,23.70
2007,08,01,15,28,23.70
2007,08,01,15,29,23.80
2007,08,01,15,30,23.80
2007,08,01,15,31,23.90
2007,08,01,15,32,24.00
2007,08,01,15,33,24.00
2007,08,01,15,34,23.90
2007,08,01,15,35,23.80
2007,08,01,15,36,23.70
2007,08,01,15,37,23.60
2007,08,01,15,38,23.60
2007,08,01,15,39,23.60
2007,08,01,15,40,23.60
2007,08,01,15,41,23.60
2007,08,01,15,42,23.70
2007,08,01,15,43,23.70
2007,08,01,15,44,23.70
2007,08,01,15,45,23.80
2007,08,01,15,46,23.70
2007,08,01,15,47,23.70
2007,08,01,15,48,23.70
2007,08,01,15,49,23.60
2007,08,01,15,50,23.60
2007,08,01,15,51,23.50
2007,08,01,15,52,23.40
2007,08,01,15,53,23.40
2007,08,01,15,54,23.60
2007,08,01,15,55,23.80
2007,08,01,15,56,23.90
2007,08,01,15,57,23.90
2007,08,01,15,58,24.00
2007,08,01,15,59,24.00
2007,08,01,16,00,23.90
2007,08,01,16,01,23.90
2007,08,01,16,02,23.90
2007,08,01,16,03,23.80
2007,08,01,16,04,23.60
2007,08,01,16,05,23.50
2007,08,01,16,06,23.40
2007,08,01,16,07,23.30
2007,08,01,16,08,23.40
2007,08,01,16,09,23.30
2007,08,01,16,10,23.30
2007,08,01,16,11,23.20
2007,08,01,16,12,23.10
2007,08,01,16,13,23.10
2007,08,01,16,14,23.10
2007,08,01,16,15,23.00
2007,08,01,16,16,22.90
2007,08,01,16,17,22.90
2007,08,01,16,18,22.90
2007,08,01,16,19,22.90
2007,08,01,16,20,22.90
2007,08,01,16,21,22.90
2007,08,01,16,22,22.90
2007,08,01,16,23,22.80
2007,08,01,16,24,22.80
2007,08,01,16,25,22.80
2007,08,01,16,26,22.90
2007,08,01,16,27,23.00
2007,08,01,16,28,23.10
2007,08,01,16,29,23.20
2007,08,01,16,30,23.20
2007,08,01,16,31,23.10
2007,08,01,16,32,23.10
2007,08,01,16,33,23.10
2007,08,01,16,34,23.20
2007,08,01,16,35,23.10
2007,08,01,16,36,22.90
2007,08,01,16,37,23.00
2007,08,01,16,38,23.00
2007,08,01,16,39,23.00
2007,08,01,16,40,23.10
2007,08,01,16,41,23.20
2007,08,01,16,42,23.50
2007,08,01,16,43,23.70
2007,08,01,16,44,23.90
2007,08,01,16,45,24.10
2007,08,01,16,46,24.20
2007,08,01,16,47,24.30
2007,08,01,16,48,24.30
2007,08,01,16,49,24.30
2007,08,01,16,50,24.20
2007,08,01,16,51,24.20
2007,08,01,16,52,24.20
2007,08,01,16,53,24.30
2007,08,01,16,54,24.30
2007,08,01,16,55,24.30
2007,08,01,16,56,24.20
2007,08,01,16,57,24.20
2007,08,01,16,58,24.00
2007,08,01,16,59,23.90
2007,08,01,17,00,23.80
2007,08,01,17,01,23.80
2007,08,01,17,02,23.80
2007,08,01,17,03,23.80
2007,08,01,17,04,23.70
2007,08,01,17,05,23.70
2007,08,01,17,06,23.70
2007,08,01,17,07,23.60
2007,08,01,17,08,23.60
2007,08,01,17,09,23.60
2007,08,01,17,10,23.50
2007,08,01,17,11,23.50
2007,08,01,17,12,23.60
2007,08,01,17,13,23.50
2007,08,01,17,14,23.50
2007,08,01,17,15,23.40
2007,08,01,17,16,23.20
2007,08,01,17,17,23.10
2007,08,01,17,18,23.10
2007,08,01,17,19,23.10